[[{"header":{"parameterUnit":"m.s-1","parameterCategory":1,"la1":30.2991,"la2":30.254,"lo1":-89.0895,"lo2":-89.0444,"dy":0.0017,"dx":0.0017,"nx":28,"ny":28,"refTime":"2026-01-07T03:00:00:Z","depth":0,"parameterNumber":2,"parameterNumberName":"U-component_of_WINDS"},"data":[0,0,0,0,0,0,0,0,0,0,0,0,0,0,0,0,0,0,0,0,0,0,0,0,0,0,0,0,0,0,0,0,0,0,0,0,0,0,0,0,0,0,0,0,0,0,0,0,0,0,0,0,0,0,0,0,0,0,-4.5044,-4.5045,0,-4.5207,-4.5208,-4.521,-4.5263,-4.5262,-4.5261,-4.5261,-4.5426,-4.5431,-4.5436,0,0,0,0,0,0,0,0,0,0,0,0,0,-4.4777,-4.4781,-4.5043,-4.5045,-4.5048,-4.5206,-4.5209,-4.5211,-4.5263,-4.5262,-4.5261,-4.526,-4.5424,-4.543,-4.5436,0,0,0,0,0,0,0,0,0,0,0,0,0,-4.4911,-4.4783,-4.5043,-4.5093,-4.5099,-4.5206,-4.5209,-4.5211,-4.5263,-4.5262,-4.5261,-4.526,-4.5422,-4.5429,-4.5437,-4.5506,0,0,-4.546,-4.5463,0,0,0,0,0,0,0,0,-4.4904,-4.4921,-4.5083,-4.509,-4.5097,-4.5213,-4.5175,-4.531,-4.5264,-4.5201,-4.5261,-4.5259,-4.5356,-4.5369,-4.5402,-4.5513,-4.552,-4.5461,-4.5465,-4.5469,-4.5471,0,0,0,0,0,0,0,-4.4894,-4.4914,-4.5108,-4.5086,-4.5094,-4.5107,-4.5125,-4.5201,-4.5282,-4.5206,-4.521,-4.5229,-4.5359,-4.5394,-4.5406,-4.5523,-4.5461,-4.5467,-4.5472,-4.5475,-4.57,-4.5702,0,0,0,0,0,0,-4.4877,-4.4906,-4.5103,-4.5113,-4.4996,-4.5112,-4.5133,-4.5177,-4.5282,-4.5297,-4.523,-4.5231,-4.5382,-4.5397,-4.5412,-4.5499,-4.5469,-4.5476,-4.548,-4.5699,-4.5701,-4.5702,0,0,0,0,0,0,-4.4871,-4.4894,-4.5096,-4.5011,-4.5038,-4.5118,-4.5168,-4.5181,-4.5216,-4.53,-4.5314,-4.5251,-4.5381,-4.5401,-4.5482,-4.5506,-4.5479,-4.5486,-4.5697,-4.5699,-4.5701,-4.5674,0,0,0,0,0,0,-4.4863,-4.4891,-4.4918,-4.5011,-4.5042,-4.5164,-4.5169,-4.5185,-4.5229,-4.5232,-4.5323,-4.5337,-4.5382,-4.5471,-4.549,-4.5516,-4.5492,-4.5695,-4.5698,-4.5701,-4.5673,-4.5675,-4.5677,0,0,0,0,0,-4.4853,-4.4903,-4.4919,-4.4943,-4.5077,-4.5165,-4.5183,-4.5234,-4.5231,-4.5258,-4.5313,-4.5334,-4.5501,-4.5479,-4.5501,-4.5529,-4.5694,-4.5697,-4.5701,-4.5673,-4.5675,-4.5677,0,0,0,0,0,0,-4.481,-4.4916,-4.4935,-4.5017,-4.5082,-4.5174,-4.521,-4.5235,-4.5301,-4.5301,-4.5362,-4.5382,-4.5458,-4.5502,-4.5476,-4.5602,-4.5598,-4.5606,-4.557,-4.5573,-4.5574,-4.5561,-4.5498,0,0,0,0,0,-4.481,-4.4873,-4.4962,-4.5026,-4.5058,-4.5128,-4.5168,-4.5203,-4.5272,-4.5299,-4.5359,-4.5425,-4.5493,-4.5535,-4.5602,-4.5681,-4.5702,-4.5712,-4.5713,-4.5714,-4.572,-4.5765,-4.5771,-4.5713,-4.5713,-4.5713,0,0,-4.481,-4.4876,-4.4912,-4.5019,-4.5073,-4.5136,-4.5151,-4.5217,-4.5264,-4.5309,-4.5389,-4.5436,-4.5514,-4.5594,-4.5633,-4.5633,-4.5741,-4.5719,-4.5719,-4.5724,-4.5769,-4.5774,-4.5779,-4.5715,-4.5715,-4.5714,0,0,-4.4843,-4.49,-4.4959,-4.5013,-4.5096,-4.5143,-4.5157,-4.5247,-4.5279,-4.5361,-4.5397,-4.5454,-4.5569,-4.5623,-4.5665,-4.5722,-4.5744,-4.5742,-4.575,-4.5793,-4.5798,-4.5802,-4.5822,-4.5828,-4.5747,-4.5747,-4.5747,0,-4.4832,-4.4929,-4.4986,-4.5051,-4.5097,-4.5142,-4.5202,-4.5253,-4.5352,-4.5383,-4.5383,-4.5529,-4.5584,-4.5678,-4.5692,-4.5725,-4.5743,-4.573,-4.5793,-4.5798,-4.5803,-4.5822,-4.5829,-4.5746,-4.5747,-4.5747,-4.5747,0,-4.4912,-4.498,-4.5018,-4.5114,-4.5164,-4.5226,-4.5292,-4.5337,-4.5368,-4.5415,-4.5498,-4.5567,-4.5649,-4.5674,-4.5704,-4.5773,-4.5771,-4.5781,-4.5778,-4.5806,-4.5825,-4.5833,-4.5745,-4.5746,-4.5746,-4.5746,0,0,-4.4919,-4.5048,-4.5061,-4.5105,-4.5201,-4.5253,-4.5318,-4.5399,-4.5436,-4.5504,-4.556,-4.5657,-4.5668,-4.5716,-4.5754,-4.5792,-4.5832,-4.5798,-4.5801,-4.5801,-4.5911,-4.5901,-4.5909,-4.5849,-4.585,-4.5852,-4.5905,0,-4.4963,-4.5081,-4.5135,-4.5228,-4.5291,-4.5336,-4.5393,-4.5458,-4.5504,-4.5564,-4.5616,-4.5684,-4.5693,-4.5723,-4.5763,-4.5818,-4.5855,-4.5816,-4.59,-4.5902,-4.5877,-4.5919,-4.5909,-4.5955,-4.5912,-4.5914,-4.5915,0,-4.503,-4.5099,-4.5198,-4.5288,-4.5316,-4.5366,-4.5445,-4.5502,-4.5577,-4.5608,-4.5663,-4.57,-4.577,-4.5765,-4.5862,-4.5834,-4.5873,-4.5906,-4.5909,-4.5917,-4.5908,-4.5927,-4.5971,-4.5977,-4.5927,-4.5926,-4.5925,0,-4.5023,-4.5141,-4.5217,-4.5254,-4.536,-4.5394,-4.544,-4.5514,-4.5559,-4.5629,-4.5659,-4.5735,-4.5777,-4.5835,-4.5892,-4.5883,-4.5984,-4.5983,-4.6011,-4.6009,-4.6028,-4.6026,-4.6077,-4.6056,-4.6056,-4.6055,-4.6055,0,-4.5065,-4.5124,-4.5215,-4.5261,-4.5329,-4.5391,-4.5456,-4.5506,-4.5572,-4.5628,-4.5673,-4.5725,-4.5797,-4.5858,-4.5903,-4.5977,-4.5995,-4.6022,-4.6033,-4.6017,-4.6013,-4.6041,-4.6039,-4.6057,-4.6057,-4.6057,-4.6056,0,-4.5069,-4.5132,-4.5217,-4.5311,-4.5337,-4.5382,-4.5463,-4.551,-4.556,-4.5631,-4.5651,-4.5729,-4.5804,-4.5866,-4.5964,-4.5994,-4.6071,-4.6084,-4.6045,-4.605,-4.6074,-4.6071,-4.6144,-4.6157,-4.6128,-4.6128,-4.6128,0,-4.509,-4.5137,-4.5237,-4.5278,-4.5324,-4.539,-4.5437,-4.5501,-4.5548,-4.5638,-4.5673,-4.5752,-4.5817,-4.5935,-4.6,-4.6076,-4.609,-4.6111,-4.6102,-4.6085,-4.6089,-4.6085,-4.609,-4.6111,-4.6111,-4.6111,-4.6111,0,-4.5122,-4.5152,-4.5218,-4.5296,-4.5351,-4.5416,-4.5481,-4.5512,-4.5588,-4.5639,-4.5716,-4.5768,-4.5869,-4.5945,-4.6029,-4.6076,-4.6106,-4.6114,-4.6124,-4.6107,-4.6082,-4.6095,-4.6045,-4.6111,-4.6111,-4.6111,-4.6111,-4.6111,-4.5135,-4.5178,-4.5256,-4.5329,-4.5385,-4.5446,-4.5494,-4.5551,-4.5616,-4.5704,-4.5738,-4.5817,-4.5892,-4.6007,-4.6055,-4.6118,-4.6122,-4.6136,-4.614,-4.6142,-4.6139,-4.6074,-4.6133,-4.6133,-4.6133,-4.6134,-4.6134,0,-4.5168,-4.522,-4.5287,-4.5378,-4.5435,-4.546,-4.5534,-4.558,-4.5649,-4.5718,-4.5782,-4.5871,-4.5947,-4.6019,-4.6098,-4.6135,-4.6151,-4.6153,-4.615,-4.6161,-4.6132,-4.6115,-4.6139,-4.6139,-4.6139,-4.6139,-4.6139,-4.6139,-4.5192,-4.5267,-4.5306,-4.541,-4.5462,-4.554,-4.558,-4.5637,-4.5692,-4.5789,-4.5852,-4.59,-4.597,-4.6055,-4.6125,-4.6145,-4.6171,-4.617,-4.6193,-4.6164,-4.6163,-4.6161,-4.6145,-4.6176,-4.6176,-4.6216,-4.6217,-4.6217]},{"header":{"parameterUnit":"m.s-1","parameterCategory":1,"la1":30.2991,"la2":30.254,"lo1":-89.0895,"lo2":-89.0444,"dy":0.0017,"dx":0.0017,"nx":28,"ny":28,"refTime":"2026-01-07T03:00:00:Z","depth":0,"parameterNumber":3,"parameterNumberName":"V-component_of_WINDS"},"data":[0,0,0,0,0,0,0,0,0,0,0,0,0,0,0,0,0,0,0,0,0,0,0,0,0,0,0,0,0,0,0,0,0,0,0,0,0,0,0,0,0,0,0,0,0,0,0,0,0,0,0,0,0,0,0,0,0,0,4.8833,4.8834,0,4.8913,4.8913,4.8914,4.8903,4.8902,4.8901,4.8899,4.8978,4.8981,4.8984,0,0,0,0,0,0,0,0,0,0,0,0,0,4.8669,4.8672,4.8833,4.8834,4.8835,4.8912,4.8913,4.8915,4.8903,4.8902,4.89,4.8899,4.8977,4.8981,4.8985,0,0,0,0,0,0,0,0,0,0,0,0,0,4.8744,4.8673,4.8833,4.8839,4.884,4.8912,4.8914,4.8915,4.8904,4.8902,4.89,4.8898,4.8975,4.898,4.8985,4.9056,0,0,4.9,4.9003,0,0,0,0,0,0,0,0,4.8739,4.875,4.8837,4.8838,4.884,4.8896,4.8885,4.8962,4.8904,4.8879,4.8899,4.8897,4.8952,4.8959,4.8978,4.9059,4.9063,4.9001,4.9004,4.9006,4.9007,0,0,0,0,0,0,0,4.8734,4.8746,4.8864,4.8838,4.884,4.8837,4.8845,4.8899,4.8926,4.8881,4.8881,4.8891,4.8952,4.8973,4.898,4.9064,4.9001,4.9005,4.9008,4.901,4.921,4.9212,0,0,0,0,0,0,4.8728,4.8742,4.8862,4.8867,4.8784,4.8841,4.8851,4.888,4.8925,4.893,4.8892,4.889,4.8966,4.8974,4.8982,4.907,4.9006,4.9011,4.9014,4.9208,4.921,4.9213,0,0,0,0,0,0,4.8724,4.8739,4.8858,4.8804,4.8819,4.8846,4.8879,4.8883,4.8903,4.8933,4.8938,4.8909,4.8964,4.8975,4.9038,4.9073,4.9013,4.9017,4.9205,4.9208,4.9212,4.9245,0,0,0,0,0,0,4.872,4.8738,4.8765,4.8805,4.8822,4.8914,4.8881,4.8886,4.8912,4.891,4.895,4.8955,4.8964,4.9031,4.9043,4.9078,4.9021,4.9202,4.9206,4.921,4.9241,4.9249,4.9256,0,0,0,0,0,4.8714,4.8769,4.8766,4.8781,4.8857,4.8915,4.8925,4.8936,4.8915,4.8943,4.8962,4.8953,4.9067,4.9038,4.9051,4.9088,4.92,4.9205,4.921,4.9237,4.9247,4.9256,0,0,0,0,0,0,4.8731,4.8775,4.8771,4.8842,4.8875,4.8913,4.8949,4.8945,4.8984,4.898,4.899,4.8999,4.9064,4.9082,4.9049,4.916,4.913,4.9139,4.9146,4.9156,4.9163,4.9158,4.9026,0,0,0,0,0,4.8743,4.8787,4.8823,4.8882,4.8899,4.8921,4.8947,4.8952,4.8987,4.9,4.9024,4.9058,4.9101,4.9129,4.917,4.9243,4.9253,4.9275,4.9283,4.9289,4.9296,4.9339,4.935,4.923,4.923,4.923,0,0,4.8768,4.8797,4.8824,4.8886,4.8912,4.8959,4.8933,4.8982,4.9016,4.9007,4.9069,4.9088,4.9126,4.9195,4.9226,4.9212,4.9332,4.9296,4.93,4.9304,4.9345,4.9356,4.9367,4.9233,4.9233,4.9232,0,0,4.8837,4.8863,4.8917,4.8944,4.8986,4.9001,4.9013,4.9053,4.9066,4.9128,4.9124,4.9164,4.9238,4.9266,4.929,4.9373,4.9367,4.9386,4.9426,4.9467,4.9477,4.9485,4.9517,4.9528,4.9393,4.9393,4.9393,0,4.8863,4.8933,4.8944,4.8995,4.9023,4.9019,4.9073,4.9099,4.9151,4.917,4.9154,4.9249,4.9273,4.935,4.9371,4.9389,4.9405,4.9382,4.9474,4.9483,4.9491,4.9522,4.9533,4.9395,4.9395,4.9395,4.9394,0,4.8964,4.9012,4.905,4.9103,4.9135,4.9187,4.9206,4.9237,4.924,4.9257,4.9321,4.9351,4.94,4.9418,4.942,4.9496,4.9487,4.9472,4.9442,4.9505,4.9534,4.9545,4.9398,4.9398,4.9397,4.9396,0,0,4.9045,4.9106,4.9119,4.9145,4.9191,4.9229,4.9281,4.933,4.9358,4.9394,4.9439,4.9503,4.9491,4.9518,4.9523,4.9559,4.9626,4.9541,4.9542,4.9558,4.9714,4.9726,4.9739,4.9622,4.9624,4.9626,4.9712,0,4.9121,4.9215,4.9228,4.9311,4.9358,4.9355,4.9401,4.9435,4.9452,4.9494,4.9512,4.9558,4.9537,4.9554,4.959,4.9611,4.9658,4.9604,4.9665,4.9667,4.9658,4.9754,4.9766,4.9845,4.9723,4.9725,4.9726,0,4.9222,4.9264,4.9353,4.9395,4.9415,4.9456,4.9504,4.9543,4.9582,4.9592,4.9624,4.9625,4.968,4.9648,4.9724,4.9688,4.9713,4.9727,4.9731,4.9738,4.9701,4.9766,4.987,4.9883,4.9743,4.9742,4.9741,0,4.9276,4.9354,4.9418,4.9439,4.949,4.9519,4.9541,4.9578,4.9608,4.9649,4.9668,4.9714,4.974,4.9776,4.9791,4.9765,4.9867,4.9835,4.9878,4.9878,4.99,4.9899,5.0013,4.9914,4.9914,4.9913,4.9913,0,4.936,4.9415,4.9443,4.9483,4.9545,4.9559,4.9619,4.964,4.9673,4.9717,4.9716,4.9757,4.9773,4.9817,4.9828,4.9891,4.9902,4.9912,4.9915,4.9914,4.9913,4.9932,4.9927,4.9916,4.9916,4.9915,4.9915,0,4.9431,4.9452,4.9522,4.9565,4.9577,4.9621,4.9658,4.9696,4.9714,4.9769,4.9783,4.981,4.9862,4.988,4.9941,4.9949,5.0023,5.002,5.0011,5.0012,5.0055,5.0051,5.0186,5.0205,5.0092,5.0093,5.0094,0,4.9484,4.9527,4.9576,4.9606,4.963,4.9678,4.9709,4.9724,4.9756,4.9805,4.9838,4.989,4.9932,5.0014,5.0039,5.0087,5.0087,5.0131,5.0094,5.0092,5.009,5.0088,5.0094,5.0138,5.0139,5.014,5.0141,0,4.9578,4.9587,4.9632,4.9682,4.972,4.9759,4.9798,4.9822,4.9843,4.9879,4.9933,4.9966,5.0031,5.0083,5.0132,5.0155,5.0152,5.0152,5.0165,5.0165,5.0159,5.0165,5.0032,5.0149,5.0148,5.0148,5.0147,5.0147,4.9643,4.9682,4.9724,4.9775,4.9806,4.9842,4.9881,4.9905,4.995,5.0005,5.0011,5.007,5.0108,5.0175,5.02,5.0246,5.0234,5.0252,5.0257,5.0261,5.0266,5.015,5.0255,5.0254,5.0254,5.0254,5.0254,0,4.9739,4.9766,4.9813,4.9868,4.9909,4.9903,4.9946,4.998,5.0032,5.0069,5.0112,5.0175,5.0226,5.0255,5.0306,5.0338,5.0338,5.0351,5.0349,5.0355,5.0273,5.0258,5.035,5.035,5.035,5.035,5.035,5.035,4.9793,4.986,4.9874,4.9957,4.9983,5.0042,5.0067,5.0101,5.0131,5.0202,5.0245,5.0264,5.0299,5.0353,5.04,5.0407,5.0427,5.0441,5.0448,5.037,5.0361,5.0351,5.0337,5.0445,5.0445,5.0527,5.0528,5.0528]}]]